Pecos, TX

11:23 PM CST on February 21, 2017 (GMT -0600)
Pecos Municipal

Weather History for KPEQ - July, 2013

Change the Weather History Date:

Tuesday, July 16, 2013

  Actual Average Record
Temperature  
Mean Temperature 69 °F -  
Max Temperature 75 °F 98 °F 110 °F (1958)
Min Temperature 63 °F 69 °F 61 °F (1935)
Cooling Degree Days 4    
Growing Degree Days 19 (Base 50)    
Moisture  
Dew Point 60 °F    
Average Humidity 84    
Maximum Humidity 93    
Minimum Humidity 55    
Precipitation  
Precipitation 0.00 in - - ()
Sea Level Pressure  
Sea Level Pressure 30.13 in    
Wind  
Wind Speed 2 mph (North)    
Max Wind Speed 9 mph    
Max Gust Speed -    
Visibility 10 miles    
Events      
Averages and records for this station are not official NWS values.
T = Trace of Precipitation, MM = Missing Value Source: NWS Daily Summary

Daily Weather History Graph

Daily Weather History Graph

Search for Another Location

Airport or City:

Trip Planner

Search our weather history database for the weather conditions in past years. The results will help you decide how hot, cold, wet, or windy it might be!

Date:

Astronomy

Jul. 16, 2013 Rise Set
Actual Time 7:00 AM CDT 8:59 PM CDT
Civil Twilight 6:33 AM CDT 9:26 PM CDT
Nautical Twilight 6:00 AM CDT 9:59 PM CDT
Astronomical Twilight 5:25 AM CDT 10:34 PM CDT
Moon 2:51 PM CDT (7/16) 1:20 AM CDT (7/16)
Length of Visible Light 14h 52m
Length of Day
13h 58m
First Quarter, 56% of the Moon is Illuminated
Jul 16
First Quarter
Jul 22
Full
Jul 29
Last Quarter
Aug 6
New
Aug 14
First Quarter

Hourly Weather History & Observations

Time (CDT) Temp. Dew Point Humidity Pressure Visibility Wind Dir Wind Speed Gust Speed Precip Events Conditions
12:15 AM 63.9 °F 61.3 °F 91% 30.14 in 10.0 mi Calm Calm - N/A   Overcast
12:35 AM 64.4 °F 61.7 °F 91% 30.13 in 10.0 mi Calm Calm - N/A   Overcast
1:15 AM 64.4 °F 61.7 °F 91% 30.12 in 10.0 mi SW 3.5 mph - N/A   Overcast
1:35 AM 63.9 °F 61.2 °F 91% 30.12 in 10.0 mi Calm Calm - N/A   Overcast
1:55 AM 63.7 °F 61.0 °F 91% 30.12 in 10.0 mi Calm Calm - N/A   Scattered Clouds
2:35 AM 63.7 °F 61.7 °F 93% 30.12 in 10.0 mi Calm Calm - N/A   Overcast
2:55 AM 63.7 °F 61.7 °F 93% 30.12 in 10.0 mi Calm Calm - N/A   Overcast
3:15 AM 63.7 °F 61.5 °F 93% 30.12 in 10.0 mi NW 3.5 mph - N/A   Overcast
3:35 AM 64.0 °F 61.3 °F 91% 30.11 in 10.0 mi Calm Calm - N/A   Overcast
3:55 AM 64.0 °F 61.2 °F 90% 30.11 in 10.0 mi Calm Calm - N/A   Overcast
4:15 AM 63.7 °F 60.8 °F 90% 30.11 in 10.0 mi NNW 3.5 mph - N/A   Overcast
4:55 AM 63.7 °F 60.4 °F 89% 30.10 in 10.0 mi Calm Calm - N/A   Overcast
5:35 AM 63.9 °F 60.6 °F 89% 30.10 in 10.0 mi Calm Calm - N/A   Overcast
5:55 AM 64.4 °F 60.1 °F 86% 30.10 in 10.0 mi Calm Calm - N/A   Overcast
6:15 AM 64.4 °F 60.8 °F 88% 30.10 in 10.0 mi Calm Calm - N/A   Overcast
6:35 AM 63.9 °F 60.3 °F 88% 30.11 in 10.0 mi NW 4.6 mph - N/A   Overcast
7:15 AM 63.5 °F 59.2 °F 86% 30.12 in 10.0 mi Calm Calm - N/A   Overcast
7:35 AM 63.7 °F 59.2 °F 85% 30.12 in 10.0 mi NNW 3.5 mph - N/A   Overcast
7:55 AM 63.9 °F 58.8 °F 84% 30.13 in 10.0 mi NNW 4.6 mph - N/A   Overcast
8:15 AM 63.7 °F 58.6 °F 84% 30.14 in 10.0 mi NNW 8.1 mph - N/A   Overcast
8:35 AM 64.4 °F 58.5 °F 81% 30.15 in 10.0 mi NNW 6.9 mph - N/A   Mostly Cloudy
8:55 AM 65.8 °F 59.2 °F 79% 30.15 in 10.0 mi NNW 5.8 mph - N/A   Overcast
9:35 AM 67.5 °F 59.4 °F 75% 30.16 in 10.0 mi Calm Calm - N/A   Overcast
4:55 PM 75.6 °F 58.3 °F 55% 30.12 in 10.0 mi East 8.1 mph - N/A   Overcast
7:35 PM 74.7 °F 59.0 °F 58% 30.12 in 10.0 mi East 9.2 mph - N/A   Overcast
8:55 PM 70.9 °F 60.6 °F 70% 30.14 in 10.0 mi East 6.9 mph - N/A   Overcast
9:15 PM 70.7 °F 61.7 °F 73% 30.15 in 10.0 mi ESE 8.1 mph - N/A   Overcast
11:15 PM 69.3 °F 62.6 °F 79% 30.19 in 10.0 mi East 8.1 mph - N/A   Mostly Cloudy